Weather History for Perry, IA

Change the Weather History Date:

Thursday, November 4, 2010

  Actual Average Record
Temperature  
Mean Temperature 46 °F -  
Max Temperature 51 °F 49 °F 76 °F (1978)
Min Temperature 41 °F 30 °F 3 °F (1991)
Degree Days  
Heating Degree Days 19    
Moisture  
Dew Point 29 °F    
Average Humidity 54    
Maximum Humidity 76    
Minimum Humidity 26    
Precipitation  
Precipitation 0.00 in - - ()
Sea Level Pressure  
Sea Level Pressure 30.11 in    
Wind  
Wind Speed 20 mph (NNW)    
Max Wind Speed 31 mph    
Max Gust Speed 39 mph    
Visibility 10 miles    
Events      
Averages and records for this station are not official NWS values.
T = Trace of Precipitation, MM = Missing Value Source: NWS Daily Summary

Daily Weather History Graph

Daily Weather History Graph

Search for Another Location

Airport:

Trip Planner

Search our weather history database for the weather conditions in past years. The results will help you decide how hot, cold, wet, or windy it might be!

Date:

Astronomy

Nov. 04, 2010 Rise Set
Actual Time 7:52 AM CDT 6:07 PM CDT
Civil Twilight 7:23 AM CDT 6:36 PM CDT
Nautical Twilight 6:50 AM CDT 7:09 PM CDT
Astronomical Twilight 6:17 AM CDT 7:41 PM CDT
Moon 6:04 AM CDT (11/4) 4:52 PM CDT (11/4)
Length of Visible Light 11h 12m
Length of Day
10h 14m
Waning Crescent, 3% of the Moon is Illuminated
Nov 4
Waning Crescent
Nov 5
New
Nov 13
First Quarter
Nov 21
Full
Nov 28
Last Quarter

Hourly Weather History & Observations

Time (CDT) Temp. Windchill Dew Point Humidity Pressure Visibility Wind Dir Wind Speed Gust Speed Precip Events Conditions
12:15 AM 46.4 °F 38.7 °F 33.8 °F 62% 30.12 in 10.0 mi NNW 20.7 mph 26.5 mph N/A   Clear
12:35 AM 46.4 °F 39.0 °F 33.8 °F 62% 30.12 in 10.0 mi NNW 19.6 mph 25.3 mph N/A   Clear
12:55 AM 46.4 °F 39.0 °F 33.8 °F 62% 30.12 in 10.0 mi NNW 19.6 mph 26.5 mph N/A   Clear
1:15 AM 46.4 °F 39.0 °F 33.8 °F 62% 30.12 in 10.0 mi NW 19.6 mph 27.6 mph N/A   Clear
1:35 AM 46.4 °F 39.0 °F 33.8 °F 62% 30.12 in 10.0 mi NNW 19.6 mph 28.8 mph N/A   Clear
1:55 AM 44.6 °F 37.2 °F 33.8 °F 66% 30.12 in 10.0 mi NNW 17.3 mph 25.3 mph N/A   Clear
2:15 AM 44.6 °F 36.4 °F 33.8 °F 66% 30.12 in 10.0 mi NNW 20.7 mph 24.2 mph N/A   Clear
2:35 AM 44.6 °F 37.2 °F 33.8 °F 66% 30.12 in 10.0 mi NNW 17.3 mph 26.5 mph N/A   Clear
2:55 AM 44.6 °F 37.4 °F 33.8 °F 66% 30.13 in 10.0 mi NW 16.1 mph - N/A   Clear
3:15 AM 44.6 °F 37.8 °F 33.8 °F 66% 30.13 in 10.0 mi NW 15.0 mph - N/A   Clear
3:35 AM 42.8 °F 35.8 °F 33.8 °F 70% 30.12 in 10.0 mi NW 13.8 mph - N/A   Clear
3:55 AM 42.8 °F 35.4 °F 33.8 °F 70% 30.12 in 10.0 mi NW 15.0 mph 18.4 mph N/A   Clear
4:15 AM 42.8 °F 35.8 °F 33.8 °F 70% 30.11 in 10.0 mi NW 13.8 mph - N/A   Clear
4:35 AM 42.8 °F 35.4 °F 33.8 °F 70% 30.11 in 10.0 mi NW 15.0 mph 20.7 mph N/A   Clear
4:55 AM 42.8 °F 35.4 °F 33.8 °F 70% 30.11 in 10.0 mi NW 15.0 mph 19.6 mph N/A   Clear
5:15 AM 42.8 °F 35.1 °F 33.8 °F 70% 30.11 in 10.0 mi NW 16.1 mph - N/A   Clear
5:35 AM 42.8 °F 34.8 °F 33.8 °F 70% 30.11 in 10.0 mi NW 17.3 mph 23.0 mph N/A   Clear
5:55 AM 42.8 °F 35.4 °F 33.8 °F 70% 30.11 in 10.0 mi NW 15.0 mph 20.7 mph N/A   Clear
6:15 AM 42.8 °F 35.4 °F 33.8 °F 70% 30.11 in 10.0 mi NW 15.0 mph - N/A   Clear
6:35 AM 42.8 °F 35.4 °F 33.8 °F 70% 30.11 in 10.0 mi NW 15.0 mph - N/A   Clear
6:55 AM 41.0 °F 33.9 °F 33.8 °F 76% 30.11 in 10.0 mi NW 12.7 mph 20.7 mph N/A   Clear
7:15 AM 41.0 °F 33.5 °F 33.8 °F 76% 30.11 in 10.0 mi NW 13.8 mph 21.9 mph N/A   Clear
7:35 AM 41.0 °F 32.8 °F 33.8 °F 76% 30.11 in 10.0 mi NW 16.1 mph - N/A   Clear
7:55 AM 41.0 °F 33.1 °F 33.8 °F 76% 30.11 in 10.0 mi NW 15.0 mph - N/A   Clear
8:15 AM 41.0 °F 32.8 °F 33.8 °F 76% 30.12 in 10.0 mi NW 16.1 mph - N/A   Clear
8:35 AM 41.0 °F 32.8 °F 33.8 °F 76% 30.12 in 10.0 mi NW 16.1 mph 21.9 mph N/A   Clear
8:55 AM 42.8 °F 35.4 °F 33.8 °F 70% 30.13 in 10.0 mi NW 15.0 mph 21.9 mph N/A   Clear
9:15 AM 42.8 °F 34.5 °F 33.8 °F 70% 30.14 in 10.0 mi NW 18.4 mph 27.6 mph N/A   Clear
9:35 AM 44.6 °F 36.9 °F 33.8 °F 66% 30.14 in 10.0 mi NW 18.4 mph 25.3 mph N/A   Clear
9:55 AM 44.6 °F 36.9 °F 33.8 °F 66% 30.13 in 10.0 mi NW 18.4 mph 27.6 mph N/A   Clear
10:15 AM 46.4 °F 38.5 °F 33.8 °F 62% 30.13 in 10.0 mi NW 21.9 mph 28.8 mph N/A   Clear
10:35 AM 48.2 °F - 33.8 °F 58% 30.13 in 10.0 mi NNW 21.9 mph 28.8 mph N/A   Clear
10:55 AM 48.2 °F - 32.0 °F 54% 30.12 in 10.0 mi NNW 29.9 mph 35.7 mph N/A   Clear
11:15 AM 50.0 °F - 32.0 °F 50% 30.13 in 10.0 mi NNW 29.9 mph 35.7 mph N/A   Scattered Clouds
11:35 AM 50.0 °F - 32.0 °F 50% 30.12 in 10.0 mi NNW 24.2 mph 31.1 mph N/A   Clear
11:55 AM 50.0 °F - 32.0 °F 50% 30.13 in 10.0 mi NNW 26.5 mph 32.2 mph N/A   Clear
12:15 PM 50.0 °F - 32.0 °F 50% 30.11 in 10.0 mi NNW 23.0 mph 33.4 mph N/A   Scattered Clouds
12:35 PM 51.8 °F - 30.2 °F 44% 30.11 in 10.0 mi NNW 26.5 mph 35.7 mph N/A   Scattered Clouds
12:55 PM 51.8 °F - 30.2 °F 44% 30.10 in 10.0 mi NNW 26.5 mph 34.5 mph N/A   Scattered Clouds
1:15 PM 51.8 °F - 26.6 °F 38% 30.09 in 10.0 mi NNW 24.2 mph 38.0 mph N/A   Scattered Clouds
1:35 PM 51.8 °F - 24.8 °F 35% 30.09 in 10.0 mi NNW 31.1 mph 39.1 mph N/A   Scattered Clouds
1:55 PM 51.8 °F - 24.8 °F 35% 30.09 in 10.0 mi NNW 31.1 mph 36.8 mph N/A   Scattered Clouds
2:15 PM 51.8 °F - 21.2 °F 30% 30.09 in 10.0 mi NNW 29.9 mph 39.1 mph N/A   Scattered Clouds
2:35 PM 51.8 °F - 19.4 °F 28% 30.09 in 10.0 mi NNW 29.9 mph 36.8 mph N/A   Clear
2:55 PM 51.8 °F - 19.4 °F 28% 30.09 in 10.0 mi North 31.1 mph 35.7 mph N/A   Clear
3:15 PM 51.8 °F - 19.4 °F 28% 30.08 in 10.0 mi NNW 26.5 mph 36.8 mph N/A   Clear
3:35 PM 51.8 °F - 19.4 °F 28% 30.08 in 10.0 mi NNW 29.9 mph 35.7 mph N/A   Clear
3:55 PM 51.8 °F - 19.4 °F 28% 30.09 in 10.0 mi NNW 23.0 mph 35.7 mph N/A   Clear
4:15 PM 51.8 °F - 17.6 °F 26% 30.09 in 10.0 mi North 27.6 mph 34.5 mph N/A   Clear
4:35 PM 50.0 °F - 17.6 °F 28% 30.09 in 10.0 mi North 25.3 mph 32.2 mph N/A   Clear
4:55 PM 50.0 °F - 17.6 °F 28% 30.09 in 10.0 mi North 25.3 mph 35.7 mph N/A   Clear
5:15 PM 50.0 °F - 17.6 °F 28% 30.10 in 10.0 mi NNW 25.3 mph 33.4 mph N/A   Clear
5:35 PM 50.0 °F - 15.8 °F 26% 30.11 in 10.0 mi NNW 25.3 mph 31.1 mph N/A   Clear
5:55 PM 48.2 °F - 19.4 °F 32% 30.11 in 10.0 mi NNW 19.6 mph 31.1 mph N/A   Clear
6:15 PM 46.4 °F 39.2 °F 19.4 °F 34% 30.11 in 10.0 mi NNW 18.4 mph 24.2 mph N/A   Clear
6:35 PM 46.4 °F 40.4 °F 21.2 °F 37% 30.11 in 10.0 mi NNW 13.8 mph 20.7 mph N/A   Clear
6:55 PM 44.6 °F 37.8 °F 21.2 °F 39% 30.12 in 10.0 mi NNW 15.0 mph 21.9 mph N/A   Clear
7:15 PM 44.6 °F 37.8 °F 23.0 °F 43% 30.12 in 10.0 mi NNW 15.0 mph - N/A   Clear
7:35 PM 42.8 °F 35.1 °F 23.0 °F 46% 30.13 in 10.0 mi NNW 16.1 mph 20.7 mph N/A   Clear
7:55 PM 42.8 °F 35.8 °F 23.0 °F 46% 30.13 in 10.0 mi NNW 13.8 mph 20.7 mph N/A   Clear
8:15 PM 42.8 °F 35.8 °F 24.8 °F 49% 30.13 in 10.0 mi NNW 13.8 mph 20.7 mph N/A   Clear
8:35 PM 41.0 °F 33.9 °F 24.8 °F 53% 30.13 in 10.0 mi NNW 12.7 mph - N/A   Clear
8:55 PM 41.0 °F 33.9 °F 24.8 °F 53% 30.14 in 10.0 mi NNW 12.7 mph - N/A   Clear
9:15 PM 41.0 °F 33.5 °F 26.6 °F 57% 30.14 in 10.0 mi NNW 13.8 mph - N/A   Clear
9:35 PM 39.2 °F 31.6 °F 26.6 °F 61% 30.15 in 10.0 mi NNW 12.7 mph 17.3 mph N/A   Clear
9:55 PM 37.4 °F 30.8 °F 26.6 °F 65% 30.15 in 10.0 mi NW 9.2 mph 16.1 mph N/A   Clear
10:15 PM 37.4 °F 29.8 °F 26.6 °F 65% 30.16 in 10.0 mi NNW 11.5 mph - N/A   Clear
10:35 PM 37.4 °F 30.3 °F 26.6 °F 65% 30.16 in 10.0 mi NNW 10.4 mph - N/A   Clear
10:55 PM 37.4 °F 29.3 °F 26.6 °F 65% 30.16 in 10.0 mi NNW 12.7 mph - N/A   Clear
11:15 PM 37.4 °F 28.9 °F 28.4 °F 70% 30.16 in 10.0 mi NNW 13.8 mph - N/A   Clear
11:35 PM 35.6 °F 27.5 °F 28.4 °F 75% 30.17 in 10.0 mi NNW 11.5 mph - N/A   Clear
11:55 PM 35.6 °F 27.5 °F 28.4 °F 75% 30.16 in 10.0 mi NNW 11.5 mph - N/A   Clear